TimeCST,TemperatureF,Dew PointF,Humidity,Sea Level PressureIn,VisibilityMPH,Wind Direction,Wind SpeedMPH,Gust SpeedMPH,PrecipitationIn,Events,Conditions,WindDirDegrees,DateUTC
12:36 AM,39.2,35.6,87,30.28,10.0,North,5.8,-,N/A,,Overcast,10,2013-01-03 06:36:00
12:53 AM,39.0,36.0,89,30.29,10.0,North,6.9,-,N/A,,Overcast,350,2013-01-03 06:53:00
1:53 AM,39.0,36.0,89,30.30,10.0,North,6.9,-,N/A,,Overcast,360,2013-01-03 07:53:00
2:53 AM,39.0,35.1,86,30.30,10.0,North,9.2,-,N/A,,Overcast,10,2013-01-03 08:53:00
3:31 AM,39.2,35.6,87,30.30,10.0,North,8.1,-,N/A,,Overcast,360,2013-01-03 09:31:00
3:42 AM,39.2,35.6,87,30.30,10.0,North,8.1,-,N/A,,Overcast,360,2013-01-03 09:42:00
3:53 AM,39.0,35.1,86,30.31,10.0,North,6.9,-,N/A,,Overcast,360,2013-01-03 09:53:00
4:53 AM,39.0,35.1,86,30.31,10.0,North,6.9,-,N/A,,Overcast,360,2013-01-03 10:53:00
5:45 AM,37.4,35.6,93,30.31,10.0,North,6.9,-,N/A,,Overcast,10,2013-01-03 11:45:00
5:53 AM,37.9,35.1,89,30.32,10.0,North,5.8,-,N/A,,Overcast,10,2013-01-03 11:53:00
6:07 AM,37.4,33.8,87,30.32,10.0,North,5.8,-,N/A,,Overcast,360,2013-01-03 12:07:00
6:53 AM,37.0,34.0,89,30.34,10.0,North,5.8,-,N/A,,Overcast,350,2013-01-03 12:53:00
7:29 AM,35.6,33.8,93,30.35,9.0,North,6.9,-,N/A,,Scattered Clouds,10,2013-01-03 13:29:00
7:53 AM,36.0,32.0,86,30.37,8.0,NNE,9.2,-,N/A,,Clear,20,2013-01-03 13:53:00
8:53 AM,39.0,33.1,79,30.39,9.0,North,6.9,-,N/A,,Clear,10,2013-01-03 14:53:00
9:53 AM,43.0,33.1,68,30.41,10.0,North,8.1,-,N/A,,Clear,10,2013-01-03 15:53:00
10:53 AM,45.0,30.9,58,30.40,10.0,North,8.1,-,N/A,,Clear,10,2013-01-03 16:53:00
11:53 AM,48.0,30.0,50,30.37,10.0,North,8.1,-,N/A,,Clear,10,2013-01-03 17:53:00
12:53 PM,50.0,28.0,43,30.33,10.0,North,9.2,-,N/A,,Clear,360,2013-01-03 18:53:00
1:53 PM,51.1,28.0,41,30.31,10.0,NNE,11.5,19.6,N/A,,Clear,20,2013-01-03 19:53:00
2:53 PM,51.1,28.9,43,30.31,10.0,NNE,10.4,-,N/A,,Clear,30,2013-01-03 20:53:00
3:53 PM,48.9,30.0,48,30.33,10.0,NNE,8.1,-,N/A,,Clear,30,2013-01-03 21:53:00
4:53 PM,48.9,32.0,52,30.36,10.0,NNE,6.9,-,N/A,,Clear,20,2013-01-03 22:53:00
5:53 PM,46.0,34.0,63,30.39,10.0,NNW,3.5,-,N/A,,Clear,340,2013-01-03 23:53:00
6:53 PM,45.0,35.1,68,30.39,10.0,North,4.6,-,N/A,,Overcast,360,2013-01-04 00:53:00
7:53 PM,46.0,34.0,63,30.40,10.0,North,6.9,-,N/A,,Overcast,10,2013-01-04 01:53:00
8:53 PM,45.0,34.0,65,30.41,10.0,NE,5.8,-,N/A,,Overcast,40,2013-01-04 02:53:00
9:53 PM,44.1,34.0,68,30.43,10.0,NE,4.6,-,N/A,,Overcast,50,2013-01-04 03:53:00
10:53 PM,43.0,34.0,71,30.41,10.0,NE,5.8,-,N/A,,Clear,40,2013-01-04 04:53:00
11:53 PM,41.0,33.1,73,30.41,10.0,NNE,6.9,-,N/A,,Partly Cloudy,20,2013-01-04 05:53:00